Torna al catalogo

GSTAR 4

AttivoComunicazioniGEO
NORAD 20946·PAYLOAD·🇺🇸 United States

Lanciato Nov 20, 1990 da Guiana Space Centre

Loading…

TLE

AggiornatoSource: Space-Track

Epoca: Sep 13, 2026, 21:49 UTC

1 20946U 90100B   26256.90909162 -.00000270  00000-0  00000+0 0  9997
2 20946  14.3367   9.4257 0005878 338.4371  96.0802  0.99145911 47691

Traccia GSTAR 4 in tempo reale con AllMySat

Download on the App Store